Starlink 5269

operational
NORAD ID: 54161 Int'l Des: 2022-141 Owner: SPXS Country: US Constellation: starlink
LEOCIRCULAR

About Starlink 5269

Description loading...

Live Position

Loading 3D Globe...

Upcoming Passes

Altitude History

Altitude vs Time

uPlot chart will show altitude changes over time

Two-Line Element Set

1 54161U 22141E 25349.81570612 .00001164 00000-0 91197-4 0 9993
2 54161 53.2188 30.7507 0001262 90.4830 269.6307 15.08849120173050
Epoch: Dec 15, 2025 • Age: 21 hours

Current Status

Altitude 543.8 km
Velocity 7.60 km/s
Sub-Earth Point 45.81°N, 103.32°E
Launch Date Oct 28, 2022
Age 3.1 years
Type internet

Technical Details

Classification Payload
Mass 305.00 kg
Dry Mass 290.00 kg
Total Mass 305.00 kg
Length 0.20 m
Diameter 2.80 m
Span 9.00 m
Shape Box + pan
Manufacturer SPXS
Bus Type Starlink
Phase Status In Orbit
Owner/State SPXS/US

Large Constellations

Loading constellations...